User: anonymous   Login
Location: Caltech
(34.1382°N, 118.1253°W)
Time: 12:23:04
(UTC-07:00)
Language:

OPAL - Orbit

View from above orbital plane
View from above orbital plane
View from above satellite
View from above satellite

Ground track
Ground track

The orbit data is extracted from the following two-line orbital elements,

1 26063U 00004C   15239.18660568  .00000021  00000-0  27186-4 0  9992
2 26063 100.2067 110.9278 0036750 010.8243 349.3721 14.36557926816611
Epoch (UTC): 27 August 2015 04:28:42
Eccentricity: 0.0036750
inclination: 100.2067°
perigee height: 743 km
apogee height: 796 km
right ascension of ascending node: 110.9278°
argument of perigee: 10.8243°
revolutions per day: 14.36557926
mean anomaly at epoch: 349.3721°
orbit number at epoch: 81661

The dashed part of the orbit path shows where the satellite is in the earth's shadow,  

DLR